Location: Mauries
(43.6188°N, 0.3322°W)
Time: 18:48:28
(UTC+00:00)

Cosmos 1295 Rocket - Pass Details

Date: 14 January 2026
Orbit: 942 x 994 km, 82.9° (Epoch: 10 February)

Event Time Altitude Azimuth Distance (km) Brightness Sun altitude
Rises 05:53:06 0° 195° (SSW) 3,695 7.5 -17.5°
Reaches altitude 10° 05:55:39 10° 198° (SSW) 2,750 6.8 -17.1°
Maximum altitude 06:01:55 66° 280° (W) 1,079 4.5 -16.0°
Drops below altitude 10° 06:08:13 10° 3° (N) 2,749 6.7 -14.9°
Sets 06:10:46 0° 6° (N) 3,695 7.4 -14.4°
